User: anonymous   Login
Location: Unspecified
(0.0000°N, 0.0000°E)
Time: 16:06:31
(UTC+00:00)
Language:

BRITE TORONTO - Orbit

View from above orbital plane
View from above orbital plane
View from above satellite
View from above satellite

Ground track
Ground track

The orbit data is extracted from the following two-line orbital elements,

1 40020U 14033L   18112.20230933  .00000076  00000-0  21276-4 0  9997
2 40020  97.7939 333.3441 0088880  63.7265 297.3039 14.66484332205386
Epoch (UTC): 22 April 2018 04:51:19
Eccentricity: 0.0088880
inclination: 97.7939°
perigee height: 609 km
apogee height: 735 km
right ascension of ascending node: 333.3441°
argument of perigee: 63.7265°
revolutions per day: 14.66484332
mean anomaly at epoch: 297.3039°
orbit number at epoch: 20538

The dashed part of the orbit path shows where the satellite is in the earth's shadow,  

DLR